| time (UTC) | temp F | wind direction | speed MPH | gust MPH | rain 1hr in | rain 24hr in | rain mn in | humidity % | barometer mb |
| 20260505081541 | 46 | 126 | 0.0 | 2.0 | 0.00 | 0.00 | 0.00 | 95 | 1008.6 |
| 20260505081039 | 46 | 157 | 0.0 | 1.0 | 0.00 | 0.00 | 0.00 | 95 | 1008.7 |
| 20260505080535 | 46 | 187 | 1.0 | 1.0 | 0.00 | 0.00 | 0.00 | 94 | 1008.7 |
| 20260505080032 | 46 | 165 | 0.0 | 0.0 | 0.00 | 0.00 | 0.00 | 94 | 1008.8 |
| 20260505075527 | 46 | 151 | 0.0 | 1.0 | 0.00 | 0.00 | 0.00 | 94 | 1008.6 |
| 20260505075025 | 46 | 186 | 0.0 | 1.0 | 0.00 | 0.00 | 0.00 | 94 | 1008.6 |
| 20260505074522 | 46 | 203 | 0.0 | 1.0 | 0.00 | 0.00 | 0.00 | 94 | 1008.7 |
| 20260505074019 | 46 | 180 | 0.0 | 2.0 | 0.00 | 0.00 | 0.00 | 94 | 1008.8 |
| 20260505073516 | 46 | 203 | 0.0 | 2.0 | 0.00 | 0.00 | 0.00 | 94 | 1008.8 |
| 20260505073015 | 46 | 107 | 2.0 | 2.0 | 0.00 | 0.00 | 0.00 | 93 | 1008.7 |
| 20260505072510 | 46 | 165 | 0.0 | 2.0 | 0.00 | 0.00 | 0.00 | 94 | 1008.8 |
| 20260505072006 | 46 | 106 | 0.0 | 0.0 | 0.00 | 0.00 | 0.00 | 93 | 1008.8 |
| 20260505071502 | 46 | 151 | 0.0 | 1.0 | 0.00 | 0.00 | 0.00 | 93 | 1008.6 |
| 20260505071000 | 46 | 187 | 1.0 | 2.0 | 0.00 | 0.00 | 0.00 | 93 | 1008.8 |
| 20260505070457 | 46 | 98 | 0.0 | 1.0 | 0.00 | 0.00 | 0.00 | 93 | 1008.7 |
| 20260505065952 | 46 | 165 | 0.0 | 2.0 | 0.00 | 0.00 | 0.00 | 92 | 1008.7 |
| 20260505065449 | 47 | 165 | 0.0 | 1.0 | 0.00 | 0.00 | 0.00 | 92 | 1008.7 |
| 20260505064946 | 47 | 148 | 1.0 | 2.0 | 0.00 | 0.00 | 0.00 | 92 | 1008.7 |
| 20260505064442 | 47 | 145 | 1.0 | 2.0 | 0.00 | 0.00 | 0.00 | 92 | 1008.9 |
| 20260505063941 | 47 | 166 | 1.0 | 1.0 | 0.00 | 0.00 | 0.00 | 92 | 1008.8 |
| 20260505063437 | 47 | 147 | 0.0 | 2.0 | 0.00 | 0.00 | 0.00 | 92 | 1008.7 |
| 20260505062933 | 47 | 151 | 0.0 | 1.0 | 0.00 | 0.00 | 0.00 | 91 | 1008.8 |
| 20260505062430 | 47 | 165 | 0.0 | 1.0 | 0.00 | 0.00 | 0.00 | 91 | 1008.7 |
| 20260505061927 | 47 | 194 | 0.0 | 2.0 | 0.00 | 0.00 | 0.00 | 91 | 1008.8 |
| 20260505061425 | 47 | 165 | 2.0 | 2.0 | 0.00 | 0.00 | 0.00 | 90 | 1008.7 |
| 20260505060923 | 48 | 172 | 0.0 | 0.0 | 0.00 | 0.00 | 0.00 | 90 | 1008.7 |
| 20260505060419 | 48 | 187 | 0.0 | 1.0 | 0.00 | 0.00 | 0.00 | 89 | 1008.9 |
| 20260505055916 | 48 | 131 | 0.0 | 2.0 | 0.00 | 0.00 | 0.00 | 89 | 1009.2 |
| 20260505055412 | 48 | 240 | 0.0 | 0.0 | 0.00 | 0.00 | 0.00 | 88 | 1009.1 |
| 20260505054909 | 49 | 240 | 0.0 | 1.0 | 0.00 | 0.00 | 0.00 | 87 | 1009.1 |
| 20260505054407 | 49 | 195 | 0.0 | 1.0 | 0.00 | 0.00 | 0.00 | 87 | 1009.0 |
| 20260505053905 | 50 | 145 | 0.0 | 2.0 | 0.00 | 0.00 | 0.00 | 85 | 1009.2 |
| 20260505053401 | 50 | 126 | 0.0 | 1.0 | 0.00 | 0.00 | 0.00 | 84 | 1009.1 |
| 20260505052858 | 51 | 180 | 0.0 | 1.0 | 0.00 | 0.00 | 0.00 | 83 | 1009.3 |
| 20260505052354 | 51 | 165 | 0.0 | 2.0 | 0.00 | 0.00 | 0.00 | 82 | 1009.4 |
| 20260505051852 | 52 | 180 | 0.0 | 2.0 | 0.00 | 0.00 | 0.00 | 80 | 1009.1 |
| 20260505051349 | 52 | 243 | 0.0 | 2.0 | 0.00 | 0.00 | 0.00 | 80 | 1009.2 |
| 20260505050847 | 52 | 180 | 0.0 | 2.0 | 0.00 | 0.00 | 0.00 | 80 | 1009.3 |
| 20260505050345 | 52 | 356 | 0.0 | 2.0 | 0.00 | 0.00 | 0.00 | 80 | 1009.4 |
| 20260505041312 | 52 | 169 | 1.0 | 3.0 | 0.00 | 0.00 | 0.00 | 80 | 1009.5 |
| 20260505040809 | 52 | 98 | 0.0 | 2.0 | 0.00 | 0.00 | 0.00 | 79 | 1009.5 |
| 20260505040308 | 52 | 102 | 0.0 | 2.0 | 0.00 | 0.00 | 0.00 | 79 | 1009.7 |
| 20260505035804 | 53 | 35 | 0.0 | 3.0 | 0.00 | 0.00 | 0.00 | 78 | 1009.5 |
| 20260505035259 | 53 | 111 | 1.0 | 4.0 | 0.00 | 0.00 | 0.00 | 78 | 1009.3 |
| 20260505034757 | 53 | 82 | 0.0 | 3.0 | 0.00 | 0.00 | 0.00 | 77 | 1009.3 |
| 20260505034254 | 53 | 56 | 2.0 | 2.0 | 0.00 | 0.00 | 0.00 | 77 | 1009.2 |
| 20260505033750 | 53 | 120 | 0.0 | 1.0 | 0.00 | 0.00 | 0.00 | 77 | 1009.3 |
| 20260505033248 | 52 | 157 | 0.0 | 2.0 | 0.00 | 0.00 | 0.00 | 78 | 1009.3 |
| 20260505032746 | 52 | 165 | 0.0 | 1.0 | 0.00 | 0.00 | 0.00 | 77 | 1009.2 |
| 20260505032241 | 53 | 94 | 2.0 | 3.0 | 0.00 | 0.00 | 0.00 | 76 | 1009.4 |
| 20260505031739 | 54 | 185 | 2.0 | 2.0 | 0.00 | 0.00 | 0.00 | 75 | 1009.2 |
| 20260505031235 | 54 | 206 | 0.0 | 1.0 | 0.00 | 0.00 | 0.00 | 74 | 1009.2 |
| 20260505030732 | 54 | 90 | 0.0 | 2.0 | 0.00 | 0.00 | 0.00 | 74 | 1009.4 |
| 20260505030228 | 54 | 99 | 0.0 | 3.0 | 0.00 | 0.00 | 0.00 | 73 | 1009.1 |
| 20260505025724 | 54 | 90 | 2.0 | 2.0 | 0.00 | 0.00 | 0.00 | 72 | 1009.2 |
| 20260505025222 | 55 | 90 | 0.0 | 3.0 | 0.00 | 0.00 | 0.00 | 71 | 1009.2 |
| 20260505024721 | 55 | 128 | 2.0 | 2.0 | 0.00 | 0.00 | 0.00 | 71 | 1009.1 |
| 20260505024217 | 55 | 69 | 0.0 | 2.0 | 0.00 | 0.00 | 0.00 | 70 | 1008.9 |
| 20260505023714 | 55 | 100 | 2.0 | 2.0 | 0.00 | 0.00 | 0.00 | 70 | 1009.1 |
| 20260505023212 | 56 | 203 | 0.0 | 3.0 | 0.00 | 0.00 | 0.00 | 69 | 1009.3 |
| 20260505022709 | 56 | 81 | 0.0 | 4.0 | 0.00 | 0.00 | 0.00 | 68 | 1009.1 |
| 20260505022206 | 56 | 90 | 3.0 | 3.0 | 0.00 | 0.00 | 0.00 | 68 | 1009.3 |
| 20260505021702 | 56 | 115 | 3.0 | 5.0 | 0.00 | 0.00 | 0.00 | 67 | 1009.3 |
| 20260505021159 | 57 | 208 | 2.0 | 3.0 | 0.00 | 0.00 | 0.00 | 67 | 1009.3 |
| 20260505020656 | 57 | 79 | 3.0 | 4.0 | 0.00 | 0.00 | 0.00 | 66 | 1009.4 |
| 20260505020151 | 57 | 203 | 0.0 | 3.0 | 0.00 | 0.00 | 0.00 | 66 | 1009.3 |
| 20260505015649 | 57 | 90 | 0.0 | 4.0 | 0.00 | 0.00 | 0.00 | 65 | 1008.9 |
| 20260505015145 | 57 | 198 | 1.0 | 2.0 | 0.00 | 0.00 | 0.00 | 65 | 1009.1 |
| 20260505014642 | 58 | 233 | 2.0 | 4.0 | 0.00 | 0.00 | 0.00 | 64 | 1009.1 |
| 20260505014140 | 58 | 166 | 1.0 | 5.0 | 0.00 | 0.00 | 0.00 | 63 | 1009.1 |
| 20260505013637 | 58 | 173 | 1.0 | 3.0 | 0.00 | 0.00 | 0.00 | 63 | 1009.2 |
| 20260505013133 | 58 | 16 | 0.0 | 4.0 | 0.00 | 0.00 | 0.00 | 63 | 1009.0 |
| 20260505012632 | 59 | 215 | 0.0 | 5.0 | 0.00 | 0.00 | 0.00 | 62 | 1008.8 |
| 20260505012128 | 59 | 32 | 2.0 | 3.0 | 0.00 | 0.00 | 0.00 | 61 | 1009.0 |
| 20260505011623 | 59 | 90 | 3.0 | 7.0 | 0.00 | 0.00 | 0.00 | 60 | 1008.5 |
| 20260505011121 | 59 | 215 | 0.0 | 4.0 | 0.00 | 0.00 | 0.00 | 60 | 1008.5 |
| 20260505010617 | 60 | 32 | 2.0 | 2.0 | 0.00 | 0.00 | 0.00 | 60 | 1008.6 |
| 20260505010114 | 60 | 208 | 2.0 | 9.0 | 0.00 | 0.00 | 0.00 | 59 | 1008.5 |
| 20260505005610 | 60 | 67 | 0.0 | 6.0 | 0.00 | 0.00 | 0.00 | 59 | 1008.2 |
| 20260505005107 | 60 | 12 | 3.0 | 8.0 | 0.00 | 0.00 | 0.00 | 58 | 1008.3 |
| 20260505004604 | 60 | 139 | 4.0 | 4.0 | 0.00 | 0.00 | 0.00 | 59 | 1008.1 |
| 20260505004101 | 60 | 54 | 4.0 | 7.0 | 0.00 | 0.00 | 0.00 | 58 | 1008.0 |
| 20260505003558 | 61 | 125 | 3.0 | 10.0 | 0.00 | 0.00 | 0.00 | 57 | 1008.0 |
| 20260505003055 | 61 | 108 | 4.0 | 7.0 | 0.00 | 0.00 | 0.00 | 57 | 1007.7 |
| 20260505002550 | 61 | 229 | 3.0 | 5.0 | 0.00 | 0.00 | 0.00 | 56 | 1007.8 |
| 20260505002049 | 61 | 304 | 0.0 | 9.0 | 0.00 | 0.00 | 0.00 | 56 | 1007.8 |
| 20260505001545 | 62 | 135 | 3.0 | 11.0 | 0.00 | 0.00 | 0.00 | 55 | 1007.7 |
| 20260505001043 | 62 | 54 | 4.0 | 7.0 | 0.00 | 0.00 | 0.00 | 55 | 1007.5 |
| 20260505000540 | 62 | 239 | 9.0 | 11.0 | 0.00 | 0.00 | 0.00 | 54 | 1007.6 |
| 20260505000038 | 62 | 125 | 0.0 | 7.0 | 0.00 | 0.00 | 0.00 | 54 | 1007.4 |
| 20260504235534 | 63 | 337 | 2.0 | 11.0 | 0.00 | 0.00 | 0.00 | 53 | 1007.4 |
| 20260504235031 | 63 | 188 | 5.0 | 8.0 | 0.00 | 0.00 | 0.00 | 53 | 1007.3 |
| 20260504234528 | 63 | 135 | 5.0 | 7.0 | 0.00 | 0.00 | 0.00 | 52 | 1007.3 |
| 20260504234025 | 64 | 160 | 8.0 | 12.0 | 0.00 | 0.00 | 0.00 | 51 | 1007.3 |
| 20260504233520 | 64 | 87 | 3.0 | 5.0 | 0.00 | 0.00 | 0.00 | 51 | 1007.0 |
| 20260504233017 | 64 | 74 | 0.0 | 7.0 | 0.00 | 0.00 | 0.00 | 49 | 1006.9 |
| 20260504232514 | 65 | 232 | 6.0 | 9.0 | 0.00 | 0.00 | 0.00 | 49 | 1006.8 |
| 20260504232012 | 65 | 103 | 3.0 | 6.0 | 0.00 | 0.00 | 0.00 | 49 | 1006.7 |
| 20260504231508 | 65 | 0 | 5.0 | 9.0 | 0.00 | 0.00 | 0.00 | 48 | 1006.5 |
| 20260504231004 | 66 | 14 | 1.0 | 6.0 | 0.00 | 0.00 | 0.00 | 47 | 1006.4 |
| 20260504230501 | 66 | 7 | 1.0 | 9.0 | 0.00 | 0.00 | 0.00 | 47 | 1006.5 |
| 20260504230000 | 66 | 257 | 9.0 | 14.0 | 0.00 | 0.00 | 0.00 | 46 | 1006.5 |
| 20260504225456 | 66 | 143 | 5.0 | 6.0 | 0.00 | 0.00 | 0.00 | 46 | 1006.4 |
| 20260504224954 | 67 | 307 | 3.0 | 13.0 | 0.00 | 0.00 | 0.00 | 45 | 1006.2 |
| 20260504224450 | 67 | 150 | 6.0 | 12.0 | 0.00 | 0.00 | 0.00 | 45 | 1006.4 |
| 20260504223947 | 67 | 214 | 8.0 | 10.0 | 0.00 | 0.00 | 0.00 | 45 | 1006.3 |
| 20260504223443 | 67 | 349 | 2.0 | 7.0 | 0.00 | 0.00 | 0.00 | 45 | 1006.2 |
| 20260504222939 | 67 | 273 | 3.0 | 7.0 | 0.00 | 0.00 | 0.00 | 44 | 1006.1 |
| 20260504222437 | 68 | 208 | 6.0 | 15.0 | 0.00 | 0.00 | 0.00 | 44 | 1006.2 |
| 20260504221934 | 68 | 120 | 3.0 | 11.0 | 0.00 | 0.00 | 0.00 | 43 | 1006.1 |
| 20260504221431 | 69 | 180 | 3.0 | 9.0 | 0.00 | 0.00 | 0.00 | 43 | 1006.3 |
| 20260504220928 | 69 | 230 | 0.0 | 15.0 | 0.00 | 0.00 | 0.00 | 41 | 1006.2 |
| 20260504220425 | 70 | 144 | 5.0 | 13.0 | 0.00 | 0.00 | 0.00 | 41 | 1006.0 |
| 20260504215922 | 71 | 82 | 8.0 | 10.0 | 0.00 | 0.00 | 0.00 | 39 | 1006.1 |
| 20260504215418 | 73 | 233 | 3.0 | 8.0 | 0.00 | 0.00 | 0.00 | 32 | 1006.2 |
| 20260504214915 | 73 | 214 | 3.0 | 4.0 | 0.00 | 0.00 | 0.00 | 32 | 1006.0 |
| 20260504214411 | 73 | 265 | 2.0 | 5.0 | 0.00 | 0.00 | 0.00 | 32 | 1006.2 |
| 20260504213908 | 72 | 180 | 2.0 | 6.0 | 0.00 | 0.00 | 0.00 | 32 | 1006.0 |
| 20260504213404 | 72 | 238 | 0.0 | 8.0 | 0.00 | 0.00 | 0.00 | 32 | 1006.2 |
| 20260504212902 | 72 | 348 | 0.0 | 3.0 | 0.00 | 0.00 | 0.00 | 33 | 1006.2 |
| 20260504212357 | 72 | 314 | 5.0 | 11.0 | 0.00 | 0.00 | 0.00 | 33 | 1006.2 |
| 20260504211855 | 72 | 342 | 3.0 | 9.0 | 0.00 | 0.00 | 0.00 | 32 | 1006.2 |
| 20260504211351 | 72 | 154 | 0.0 | 7.0 | 0.00 | 0.00 | 0.00 | 33 | 1006.2 |
| 20260504210849 | 72 | 229 | 3.0 | 5.0 | 0.00 | 0.00 | 0.00 | 33 | 1006.3 |
| 20260504210346 | 73 | 258 | 5.0 | 8.0 | 0.00 | 0.00 | 0.00 | 32 | 1006.3 |
| 20260504205843 | 72 | 203 | 0.0 | 6.0 | 0.00 | 0.00 | 0.00 | 32 | 1006.2 |
| 20260504205341 | 72 | 348 | 1.0 | 8.0 | 0.00 | 0.00 | 0.00 | 33 | 1006.4 |
| 20260504204838 | 72 | 236 | 5.0 | 10.0 | 0.00 | 0.00 | 0.00 | 32 | 1006.2 |
| 20260504204337 | 74 | 267 | 3.0 | 5.0 | 0.00 | 0.00 | 0.00 | 30 | 1006.4 |
| 20260504203836 | 74 | 201 | 3.0 | 10.0 | 0.00 | 0.00 | 0.00 | 32 | 1006.2 |
| 20260504203332 | 73 | 232 | 6.0 | 14.0 | 0.00 | 0.00 | 0.00 | 33 | 1006.3 |
| 20260504202828 | 73 | 232 | 4.0 | 9.0 | 0.00 | 0.00 | 0.00 | 32 | 1006.2 |
| 20260504202326 | 73 | 279 | 2.0 | 9.0 | 0.00 | 0.00 | 0.00 | 31 | 1006.4 |
| 20260504201822 | 74 | 257 | 6.0 | 10.0 | 0.00 | 0.00 | 0.00 | 30 | 1006.3 |
| 20260504201319 | 75 | 216 | 8.0 | 9.0 | 0.00 | 0.00 | 0.00 | 31 | 1006.3 |
| 20260504200817 | 73 | 313 | 6.0 | 12.0 | 0.00 | 0.00 | 0.00 | 31 | 1006.6 |
| 20260504200313 | 74 | 229 | 0.0 | 7.0 | 0.00 | 0.00 | 0.00 | 30 | 1006.4 |
| 20260504195809 | 74 | 266 | 5.0 | 6.0 | 0.00 | 0.00 | 0.00 | 31 | 1006.5 |
| 20260504195305 | 73 | 270 | 7.0 | 11.0 | 0.00 | 0.00 | 0.00 | 32 | 1006.5 |
| 20260504194802 | 74 | 194 | 1.0 | 10.0 | 0.00 | 0.00 | 0.00 | 31 | 1006.4 |
| 20260504194258 | 75 | 119 | 6.0 | 7.0 | 0.00 | 0.00 | 0.00 | 32 | 1006.4 |
| 20260504193754 | 73 | 315 | 2.0 | 9.0 | 0.00 | 0.00 | 0.00 | 32 | 1006.6 |
| 20260504193252 | 74 | 253 | 11.0 | 11.0 | 0.00 | 0.00 | 0.00 | 32 | 1006.7 |
| 20260504192750 | 73 | 252 | 5.0 | 12.0 | 0.00 | 0.00 | 0.00 | 31 | 1006.8 |
| 20260504192248 | 73 | 245 | 5.0 | 11.0 | 0.00 | 0.00 | 0.00 | 31 | 1006.8 |
| 20260504191747 | 74 | 206 | 4.0 | 9.0 | 0.00 | 0.00 | 0.00 | 32 | 1006.6 |
| 20260504191243 | 73 | 212 | 9.0 | 14.0 | 0.00 | 0.00 | 0.00 | 32 | 1006.6 |
| 20260504190739 | 74 | 175 | 3.0 | 6.0 | 0.00 | 0.00 | 0.00 | 33 | 1006.9 |
| 20260504190235 | 74 | 234 | 3.0 | 9.0 | 0.00 | 0.00 | 0.00 | 31 | 1006.7 |
| 20260504185732 | 72 | 223 | 13.0 | 15.0 | 0.00 | 0.00 | 0.00 | 31 | 1006.8 |
| 20260504185229 | 72 | 264 | 10.0 | 17.0 | 0.00 | 0.00 | 0.00 | 32 | 1006.9 |
| 20260504184725 | 73 | 209 | 4.0 | 9.0 | 0.00 | 0.00 | 0.00 | 31 | 1006.7 |
| 20260504184221 | 73 | 315 | 4.0 | 7.0 | 0.00 | 0.00 | 0.00 | 33 | 1006.7 |
| 20260504183717 | 72 | 45 | 3.0 | 13.0 | 0.00 | 0.00 | 0.00 | 32 | 1006.9 |
| 20260504183214 | 72 | 219 | 5.0 | 9.0 | 0.00 | 0.00 | 0.00 | 31 | 1006.8 |
| 20260504182712 | 73 | 240 | 6.0 | 6.0 | 0.00 | 0.00 | 0.00 | 32 | 1007.1 |
| 20260504182209 | 73 | 258 | 4.0 | 6.0 | 0.00 | 0.00 | 0.00 | 32 | 1007.1 |
| 20260504181707 | 73 | 310 | 4.0 | 15.0 | 0.00 | 0.00 | 0.00 | 31 | 1007.1 |
| 20260504181204 | 71 | 246 | 0.0 | 9.0 | 0.00 | 0.00 | 0.00 | 34 | 1007.2 |
| 20260504180703 | 72 | 310 | 5.0 | 16.0 | 0.00 | 0.00 | 0.00 | 32 | 1007.4 |
| 20260504180201 | 73 | 205 | 5.0 | 8.0 | 0.00 | 0.00 | 0.00 | 31 | 1007.2 |
| 20260504175658 | 73 | 312 | 2.0 | 10.0 | 0.00 | 0.00 | 0.00 | 32 | 1007.2 |
| 20260504175154 | 72 | 0 | 2.0 | 14.0 | 0.00 | 0.00 | 0.00 | 32 | 1007.4 |
| 20260504174653 | 71 | 351 | 5.0 | 9.0 | 0.00 | 0.00 | 0.00 | 32 | 1007.5 |
| 20260504174149 | 71 | 330 | 4.0 | 13.0 | 0.00 | 0.00 | 0.00 | 32 | 1007.5 |
| 20260504173646 | 71 | 240 | 7.0 | 9.0 | 0.00 | 0.00 | 0.00 | 35 | 1007.6 |
| 20260504173144 | 71 | 241 | 7.0 | 13.0 | 0.00 | 0.00 | 0.00 | 33 | 1007.4 |
| 20260504172640 | 70 | 318 | 3.0 | 6.0 | 0.00 | 0.00 | 0.00 | 32 | 1007.6 |
| 20260504172137 | 71 | 303 | 2.0 | 10.0 | 0.00 | 0.00 | 0.00 | 33 | 1007.5 |
| 20260504171633 | 70 | 262 | 14.0 | 16.0 | 0.00 | 0.00 | 0.00 | 31 | 1007.7 |
| 20260504171131 | 70 | 249 | 5.0 | 18.0 | 0.00 | 0.00 | 0.00 | 33 | 1007.7 |
| 20260504170627 | 70 | 225 | 9.0 | 17.0 | 0.00 | 0.00 | 0.00 | 31 | 1007.9 |
| 20260504170124 | 71 | 323 | 0.0 | 5.0 | 0.00 | 0.00 | 0.00 | 33 | 1007.9 |
| 20260504151010 | 66 | 228 | 2.0 | 5.0 | 0.00 | 0.00 | 0.00 | 37 | 1009.1 |
| 20260504150507 | 65 | 149 | 12.0 | 12.0 | 0.00 | 0.00 | 0.00 | 36 | 1009.4 |
| 20260504140927 | 64 | 303 | 6.0 | 11.0 | 0.00 | 0.00 | 0.00 | 39 | 1009.7 |
| 20260504140424 | 64 | 8 | 0.0 | 11.0 | 0.00 | 0.00 | 0.00 | 37 | 1009.8 |
| 20260504130349 | 60 | 201 | 2.0 | 10.0 | 0.00 | 0.00 | 0.00 | 42 | 1010.4 |
| 20260504120311 | 56 | 52 | 2.0 | 3.0 | 0.00 | 0.00 | 0.00 | 51 | 1010.5 |
| 20260504110235 | 46 | 111 | 0.0 | 2.0 | 0.00 | 0.00 | 0.00 | 68 | 1010.9 |
| 20260504100159 | 42 | 251 | 7.0 | 7.0 | 0.00 | 0.00 | 0.00 | 72 | 1010.8 |
| 20260504090117 | 41 | 198 | 1.0 | 4.0 | 0.00 | 0.00 | 0.00 | 75 | 1010.3 |